Previsão horária em A dos Cunhados

Hoje, 20 Outubro, Terça-feira

Tempo Temperatura Precipitação Vento Pressão Humidade
00:00 +17°C° 0 mm 3 m/s 747 mmHg 95%
01:00 +17°C° 0 mm 3 m/s 747 mmHg 95%
02:00 +17°C° 0 mm 3 m/s 747 mmHg 95%
03:00 +17°C° 0 mm 3 m/s 746 mmHg 95%
04:00 +17°C° 0 mm 4 m/s 746 mmHg 94%
05:00 +17°C° 0 mm 4 m/s 746 mmHg 94%
06:00 +17°C° 2.2 mm 4 m/s 745 mmHg 95%
07:00 +17°C° 2.2 mm 3 m/s 744 mmHg 95%
08:00 +17°C° 2.2 mm 3 m/s 743 mmHg 96%
09:00 +16°C° 16.1 mm 3 m/s 742 mmHg 95%
10:00 +15°C° 16.1 mm 4 m/s 741 mmHg 95%
11:00 +14°C° 16.1 mm 4 m/s 741 mmHg 94%
12:00 +15°C° 2.2 mm 5 m/s 741 mmHg 92%
13:00 +16°C° 2.2 mm 6 m/s 741 mmHg 89%
14:00 +17°C° 2.2 mm 7 m/s 741 mmHg 87%
15:00 +16°C° 0.3 mm 6 m/s 742 mmHg 88%
16:00 +16°C° 0.3 mm 6 m/s 742 mmHg 89%
17:00 +16°C° 0.3 mm 5 m/s 742 mmHg 90%
18:00 +16°C° 0.7 mm 6 m/s 742 mmHg 89%
19:00 +16°C° 0.7 mm 7 m/s 743 mmHg 87%
20:00 +15°C° 0.7 mm 8 m/s 743 mmHg 86%
21:00 +15°C° 0.2 mm 7 m/s 743 mmHg 87%
22:00 +14°C° 0.2 mm 6 m/s 743 mmHg 88%
23:00 +14°C° 0.2 mm 5 m/s 743 mmHg 89%

Amanhã, 21 Outubro, Quarta-feira

Tempo Temperatura Precipitação Vento Pressão Humidade
00:00 +14°C° 0.2 mm 5 m/s 743 mmHg 90%
01:00 +14°C° 0.2 mm 5 m/s 743 mmHg 91%
02:00 +14°C° 0.2 mm 5 m/s 743 mmHg 92%
03:00 +14°C° 0.4 mm 4 m/s 743 mmHg 93%
04:00 +14°C° 0.4 mm 4 m/s 744 mmHg 93%
05:00 +14°C° 0.4 mm 3 m/s 744 mmHg 93%
06:00 +16°C° 0.2 mm 3 m/s 744 mmHg 89%
07:00 +17°C° 0.2 mm 3 m/s 745 mmHg 85%
08:00 +18°C° 0.2 mm 4 m/s 745 mmHg 80%
09:00 +19°C° 0.3 mm 4 m/s 746 mmHg 75%
10:00 +20°C° 0.3 mm 5 m/s 746 mmHg 69%
11:00 +20°C° 0.3 mm 5 m/s 746 mmHg 63%
12:00 +20°C° 0.3 mm 5 m/s 746 mmHg 64%
13:00 +20°C° 0.3 mm 6 m/s 747 mmHg 64%
14:00 +19°C° 0.3 mm 6 m/s 747 mmHg 64%
15:00 +17°C° 0.1 mm 5 m/s 747 mmHg 69%
16:00 +16°C° 0.1 mm 5 m/s 747 mmHg 74%
17:00 +15°C° 0.1 mm 4 m/s 748 mmHg 79%
18:00 +16°C° 0 mm 3 m/s 748 mmHg 81%
19:00 +14°C° 0 mm 3 m/s 749 mmHg 83%
20:00 +15°C° 0 mm 2 m/s 750 mmHg 85%
21:00 +14°C° 0 mm 2 m/s 750 mmHg 85%
22:00 +14°C° 0 mm 2 m/s 750 mmHg 85%
23:00 +14°C° 0 mm 2 m/s 750 mmHg 86%

Depois de amanhã, 22 Outubro, Quinta-feira

Tempo Temperatura Precipitação Vento Pressão Humidade
00:00 +14°C° 0 mm 2 m/s 750 mmHg 87%
01:00 +13°C° 0 mm 2 m/s 750 mmHg 87%
02:00 +13°C° 0 mm 2 m/s 750 mmHg 88%
03:00 +13°C° 0.1 mm 2 m/s 751 mmHg 89%
04:00 +13°C° 0.1 mm 2 m/s 751 mmHg 90%
05:00 +13°C° 0.1 mm 2 m/s 751 mmHg 91%
06:00 +13°C° 0.1 mm 2 m/s 751 mmHg 88%
07:00 +13°C° 0.1 mm 3 m/s 752 mmHg 86%
08:00 +14°C° 0.1 mm 3 m/s 752 mmHg 83%
09:00 +17°C° 0.1 mm 2 m/s 752 mmHg 75%
10:00 +18°C° 0.1 mm 2 m/s 752 mmHg 68%
11:00 +20°C° 0.1 mm 2 m/s 753 mmHg 60%
12:00 +20°C° 0.1 mm 2 m/s 753 mmHg 59%
13:00 +20°C° 0.1 mm 2 m/s 752 mmHg 58%
14:00 +20°C° 0.1 mm 2 m/s 752 mmHg 57%
15:00 +19°C° 0.1 mm 2 m/s 753 mmHg 65%
16:00 +17°C° 0.1 mm 2 m/s 753 mmHg 73%
17:00 +16°C° 0.1 mm 2 m/s 753 mmHg 80%
18:00 +15°C° 0 mm 2 m/s 754 mmHg 82%
19:00 +15°C° 0 mm 2 m/s 754 mmHg 83%
20:00 +14°C° 0 mm 1 m/s 755 mmHg 84%
21:00 +14°C° 0 mm 1 m/s 755 mmHg 85%
22:00 +14°C° 0 mm 1 m/s 755 mmHg 85%
23:00 +13°C° 0 mm 1 m/s 756 mmHg 85%

23 Outubro, Sexta-feira

Tempo Temperatura Precipitação Vento Pressão Humidade
00:00 +13°C° 0 mm 1 m/s 756 mmHg 86%
01:00 +12°C° 0 mm 0 m/s 756 mmHg 86%
02:00 +12°C° 0 mm 0 m/s 756 mmHg 86%
03:00 +12°C° 0 mm 0 m/s 757 mmHg 87%
04:00 +11°C° 0 mm 0 m/s 757 mmHg 87%
05:00 +11°C° 0 mm 0 m/s 757 mmHg 87%
06:00 +13°C° 0 mm 0 m/s 758 mmHg 83%
07:00 +15°C° 0 mm 1 m/s 758 mmHg 78%
08:00 +16°C° 0 mm 1 m/s 759 mmHg 73%
09:00 +18°C° 0 mm 1 m/s 759 mmHg 67%
10:00 +20°C° 0 mm 1 m/s 759 mmHg 61%
11:00 +21°C° 0 mm 1 m/s 760 mmHg 55%
12:00 +20°C° 0 mm 2 m/s 760 mmHg 57%
13:00 +20°C° 0 mm 3 m/s 760 mmHg 58%
14:00 +20°C° 0 mm 3 m/s 760 mmHg 60%
15:00 +18°C° 0 mm 3 m/s 760 mmHg 69%
16:00 +17°C° 0 mm 3 m/s 760 mmHg 77%
17:00 +14°C° 0 mm 3 m/s 760 mmHg 86%
18:00 +13°C° 0 mm 3 m/s 760 mmHg 88%
19:00 +13°C° 0 mm 3 m/s 761 mmHg 90%
20:00 +12°C° 0 mm 3 m/s 761 mmHg 92%
21:00 +12°C° 0 mm 3 m/s 761 mmHg 92%
22:00 +13°C° 0 mm 2 m/s 761 mmHg 92%
23:00 +13°C° 0 mm 2 m/s 761 mmHg 92%

24 Outubro, Sábado

Tempo Temperatura Precipitação Vento Pressão Humidade
00:00 +12°C° 0 mm 2 m/s 761 mmHg 92%
01:00 +12°C° 0 mm 2 m/s 760 mmHg 92%
02:00 +12°C° 0 mm 2 m/s 760 mmHg 91%
03:00 +12°C° 0 mm 1 m/s 760 mmHg 91%
04:00 +11°C° 0 mm 1 m/s 760 mmHg 91%
05:00 +11°C° 0 mm 1 m/s 760 mmHg 92%
06:00 +13°C° 0 mm 1 m/s 760 mmHg 86%
07:00 +14°C° 0 mm 1 m/s 760 mmHg 80%
08:00 +15°C° 0 mm 1 m/s 760 mmHg 74%
09:00 +18°C° 0 mm 1 m/s 760 mmHg 68%
10:00 +19°C° 0 mm 1 m/s 760 mmHg 62%
11:00 +21°C° 0 mm 1 m/s 759 mmHg 56%
12:00 +21°C° 0 mm 1 m/s 759 mmHg 56%
13:00 +20°C° 0 mm 2 m/s 758 mmHg 56%
14:00 +20°C° 0 mm 2 m/s 758 mmHg 56%
15:00 +18°C° 0 mm 2 m/s 757 mmHg 64%
16:00 +16°C° 0 mm 2 m/s 757 mmHg 73%
17:00 +15°C° 0 mm 2 m/s 757 mmHg 81%
18:00 +14°C° 0 mm 2 m/s 757 mmHg 84%
19:00 +14°C° 0 mm 2 m/s 757 mmHg 88%
20:00 +13°C° 0 mm 2 m/s 757 mmHg 91%
21:00 +12°C° 0 mm 3 m/s 756 mmHg 91%
22:00 +13°C° 0 mm 3 m/s 756 mmHg 90%
23:00 +13°C° 0 mm 4 m/s 756 mmHg 90%

25 Outubro, Domingo

Tempo Temperatura Precipitação Vento Pressão Humidade
00:00 +13°C° 0 mm 4 m/s 755 mmHg 87%
01:00 +14°C° 0 mm 4 m/s 755 mmHg 85%
02:00 +14°C° 0 mm 5 m/s 754 mmHg 82%
03:00 +14°C° 0.1 mm 5 m/s 754 mmHg 82%
04:00 +14°C° 0.1 mm 5 m/s 754 mmHg 82%
05:00 +14°C° 0.1 mm 5 m/s 754 mmHg 82%
06:00 +14°C° 0.9 mm 6 m/s 754 mmHg 84%
07:00 +13°C° 0.9 mm 8 m/s 754 mmHg 85%
08:00 +13°C° 0.9 mm 9 m/s 755 mmHg 87%
09:00 +13°C° 1.4 mm 8 m/s 755 mmHg 83%
10:00 +12°C° 1.4 mm 7 m/s 755 mmHg 80%
11:00 +13°C° 1.4 mm 6 m/s 756 mmHg 77%
12:00 +14°C° 0 mm 5 m/s 756 mmHg 72%
13:00 +14°C° 0 mm 5 m/s 756 mmHg 68%
14:00 +15°C° 0 mm 4 m/s 756 mmHg 63%
15:00 +14°C° 0 mm 4 m/s 756 mmHg 67%
16:00 +13°C° 0 mm 4 m/s 757 mmHg 71%
17:00 +13°C° 0 mm 4 m/s 757 mmHg 75%
18:00 +12°C° 0 mm 4 m/s 758 mmHg 77%
19:00 +12°C° 0 mm 4 m/s 758 mmHg 79%
20:00 +12°C° 0 mm 4 m/s 759 mmHg 81%
21:00 +12°C° 0 mm 4 m/s 759 mmHg 83%
22:00 +12°C° 0 mm 4 m/s 759 mmHg 84%
23:00 +11°C° 0 mm 4 m/s 759 mmHg 85%

26 Outubro, Segunda-feira

Tempo Temperatura Precipitação Vento Pressão Humidade
00:00 +11°C° 0.1 mm 3 m/s 759 mmHg 86%
01:00 +11°C° 0.1 mm 3 m/s 759 mmHg 87%
02:00 +11°C° 0.1 mm 3 m/s 759 mmHg 88%
03:00 +11°C° 0.1 mm 3 m/s 760 mmHg 87%
04:00 +11°C° 0.1 mm 3 m/s 760 mmHg 87%
05:00 +11°C° 0.1 mm 3 m/s 760 mmHg 87%
06:00 +12°C° 0 mm 3 m/s 760 mmHg 83%
07:00 +14°C° 0 mm 2 m/s 761 mmHg 79%
08:00 +15°C° 0 mm 2 m/s 761 mmHg 75%
09:00 +16°C° 0 mm 2 m/s 761 mmHg 69%
10:00 +17°C° 0 mm 3 m/s 761 mmHg 64%
11:00 +18°C° 0 mm 3 m/s 761 mmHg 58%
12:00 +18°C° 0 mm 3 m/s 761 mmHg 59%
13:00 +18°C° 0 mm 3 m/s 761 mmHg 59%
14:00 +18°C° 0 mm 4 m/s 760 mmHg 60%
15:00 +16°C° 0 mm 3 m/s 760 mmHg 66%
16:00 +14°C° 0 mm 3 m/s 760 mmHg 71%
17:00 +13°C° 0 mm 3 m/s 760 mmHg 77%
18:00 +12°C° 0 mm 3 m/s 760 mmHg 80%
19:00 +13°C° 0 mm 2 m/s 761 mmHg 82%
20:00 +13°C° 0 mm 2 m/s 761 mmHg 85%
21:00 +12°C° 0 mm 2 m/s 761 mmHg 86%
22:00 +12°C° 0 mm 2 m/s 761 mmHg 86%
23:00 +12°C° 0 mm 2 m/s 760 mmHg 87%
Mostrar mais